{"data":{"norad_id":55167,"epoch":"2026-05-25T03:23:11.688864Z","epoch_age_seconds":62789,"freshness":"FRESH","line1":"1 55167U 23004AD  26145.14110751  .00000138  00000+0  32152-3 0  9998","line2":"2 55167  87.9150  10.4574 0001384  91.2501 268.8789 13.17650790164548","mean_motion":13.1765079,"eccentricity":0.0001384,"inclination_deg":87.915,"raan_deg":10.4574,"arg_perigee_deg":91.2501,"mean_anomaly_deg":268.8789,"bstar":0.00032152,"rev_number":16454,"period_min":109.28540482262,"perigee_km":1192.6584592724,"apogee_km":1194.7543455262,"semimajor_km":7571.8434023993,"source":"CELESTRAK","updated_at":"2026-05-25T13:38:22.645373Z"}}